502P/NEAT (2025)

Japanese version
Home page
Updated on January 31, 2026

---------------------------------------------------------------------

* Profile

Designation 502P/2025 H1
Recovery Date September 1, 2024 and April 23, 2025
Magnitude 22.0 mag and 20.3 mag
Recoverer S. Deen (Cerro Tololo), G. J. Leonard (Mt. Lemmon)

* Pictures

* Orbital Elements

Epoch 2025 May 5.0 TT = JDT 2460800.5                                           
T 2025 Aug. 5.11335 TT                                  Veres                   
q   4.2294846            (2000.0)            P               Q                  
n   0.04356931     Peri.   37.74497     +0.52129925     +0.83038627             
a   7.9986293      Node   264.48506     -0.82317396     +0.42851719             
e   0.4712238      Incl.   11.39972     -0.22501494     +0.35613432             
P  22.6                                                                         
From 133 observations 2002 June 11-2025 Apr. 27, mean residual 1".1.            

* Magnitudes Graph

        m1 = -3.0 + 5 log d + 30.0 log r

---------------------------------------------------------------------

The orbital elements are published on M.P.E.C. 2025-H183.
The magnitudes graphs are made with Comet for Windows.

---------------------------------------------------------------------

Copyright(C) Seiichi Yoshida (comet@aerith.net). All rights reserved.